Regional Weather Roundup
Issued by NWS Jackson, KY

Home | Current Version | Previous Version | Graphics & Text | Print | Product List | Glossary On
Versions: 1 2 3 4 5 6 7 8 9 10 11 12 13 14 15 16 17 18 19 20 21 22 23 24 25 26 27 28 29 30 31 32 33 34 35 36 37 38 39 40 41 42 43 44 45 46 47 48 49 50
000
ASUS43 KJKL 060810
RWRJKL

EAST KENTUCKY HOURLY WEATHER ROUNDUP
NATIONAL WEATHER SERVICE JACKSON KY
400 AM EDT WED MAY 06 2015

NOTE: "FAIR" INDICATES FEW OR NO CLOUDS BELOW 12,000 FEET WITH
NO SIGNIFICANT WEATHER AND/OR OBSTRUCTIONS TO VISIBILITY.

* THESE REPORTS ARE NOT UNDER NWS QUALITY CONTROL AND MAY NOT
  REPORT WEATHER SUCH AS PRECIPITATION AND FOG.

KYZ079-080-083-085-087-088-110-112-115-119-120-060900
...EASTERN KENTUCKY...

CITY           SKY/WX    TMP DP  RH WIND       PRES   REMARKS
JACKSON        CLEAR     63  54  72 S5        30.23S
LONDON         PTCLDY    56  51  84 E3        30.23R HAZE
SOMERSET*      CLEAR     55  54  94 CALM      30.23F
MONTICELLO*    CLEAR     58  56  93 CALM      30.24F
MIDDLESBORO*   PTCLDY    56  55  94 CALM      30.25S
HARLAN APT*    CLOUDY    55  55 100 CALM      30.25S
BLACK MTN*       N/A     59  52  77 S8          N/A
PIKEVILLE APT* CLEAR     61  55  82 CALM      30.23S
BIG SANDY*     SUNNY     61  56  82 CALM      30.22F
MOREHEAD APT*  MOSUNNY   61  54  77 CALM      30.24S
$$

KYZ035-036-041-042-044-050-067-078-099-060900
...CENTRAL KENTUCKY...

CITY           SKY/WX    TMP DP  RH WIND       PRES   REMARKS
MT STERLING*   MOCLDY    55  54  94 W3        30.23S
FLEMING/MASON* MOCLDY    61  55  82 S3        30.22S
DANVILLE*      CLEAR     55  54  94 CALM      30.22F
RICHMOND*      CLEAR     59  54  82 CALM      30.21F
LEXINGTON        N/A     61  54  77 SE3       30.21F
FRANKFORT      MOCLDY    57  53  86 CALM      30.20S
$$

KYZ091>093-OHZ055-061-077-WVZ005-015-034-035-042-060900
...SOUTHERN OHIO/WEST VIRGINIA...

CITY           SKY/WX    TMP DP  RH WIND       PRES   REMARKS
COVINGTON      CLEAR     59  54  83 CALM      30.20S
COLUMBUS       PTCLDY    58  55  90 CALM      30.19S
DAYTON         PTCLDY    61  55  81 CALM      30.21R
WILMINGTON     CLEAR     61  52  72 S3        30.21R
HUNTINGTON     MOCLDY    58  56  93 CALM      30.20F
CHARLESTON     CLEAR     57  55  93 CALM      30.21S
PINEVILLE*     CLEAR     55  55 100 MISG      30.30F FOG
BECKLEY        PTCLDY    59  51  75 CALM      30.27F
BLUEFIELD      CLOUDY    64  49  57 W3        30.30S
$$

VAZ002-007-008-TNZ017-027-036-066-071-060900
...SOUTHWEST VIRGINIA/EAST TENNESSEE...

CITY           SKY/WX    TMP DP  RH WIND       PRES   REMARKS
WISE*          CLEAR     61  48  63 CALM      30.30S
JONESVILLE*    PTSUNNY   57  55  94 CALM      30.27S
ABINGDON*      MOCLDY    62  56  82 CALM      30.27F
BRISTOL        CLOUDY    62  56  80 CALM      30.25F
KNOXVILLE      PTCLDY    64  56  75 CALM      30.22S
OAK RIDGE      MOCLDY    64  59  83 CALM      30.24S
CROSSVILLE     CLOUDY    66  52  60 CALM      30.26S
NASHVILLE      PTCLDY    64  57  78 CALM      30.19F
$$

...KEY TO REMARKS...
VSB - VISIBILITY IN MILES
WCI - WIND CHILL INDEX
HX  - HEAT INDEX

$$


USA.gov is the U.S. government's official web portal to all federal, state and local government web resources and services.